Location: Antist
(43.1184°N, 0.1270°E)
Time: 09:30:13
(UTC+00:00)

H-2A R/B - Pass Details

Date: 19 January 2020
Orbit: 734 x 836 km, 98.2° (Epoch: 17 February)

Event Time Altitude Azimuth Distance (km) Brightness Sun altitude
Exits shadow 18:46:39 13° 16° (NNE) 2,109 4.0 -20.2°
Drops below altitude 10° 18:47:15 10° 11° (NNE) 2,298 4.3 -20.3°
Sets 18:49:56 0° 359° (N) 3,245 5.2 -20.8°
